Location: Alfortville
(48.8058°N, 2.4204°E)
Time: 14:23:26
(UTC+00:00)

Meteor 1-19 Rocket - Pass Details

Date: 13 December 2023
Orbit: 806 x 928 km, 81.2° (Epoch: 01 March)

Event Time Altitude Azimuth Distance (km) Brightness Sun altitude
Rises 05:33:02 0° 348° (NNW) 3,580 7.2 -19.0°
Reaches altitude 10° 05:35:33 10° 350° (N) 2,624 6.5 -18.6°
Maximum altitude 05:41:34 78° 78° (ENE) 927 4.5 -17.6°
Drops below altitude 10° 05:47:23 10° 165° (SSE) 2,539 7.1 -16.7°
Sets 05:49:47 0° 166° (SSE) 3,455 7.8 -16.3°
